INMARSAT 5-F3

Last updated on Tue Sep 22 2026 00:03:13 GMT+0000 (Coordinated Universal Time)

1 40882U 15042A 26264.42961167 .00000046 00000+0 00000+0 0 9998 2 40882 0.0028 81.0555 0000980 320.4459 293.0468 1.00272530 40536
UTC large
Height (km)
Speed (km/s)
/
Latitude / Longitude
Inclination (degrees)
Orbital Period (minutes)
Azimuth
Elevation
Range (km)
Doppler Factor

Next 0 passes for location: London (51.5072 / 0.1276)

No passes found over London.
INMARSAT 5-F3